Regional Weather Roundup
Issued by NWS Bismarck, ND

Home | Current Version | Previous Version | Text Only | Print | Product List | Glossary On
Versions: 1 2 3 4 5 6 7 8 9 10 11 12 13 14 15 16 17 18 19 20 21 22 23 24 25 26 27 28 29 30 31 32 33 34 35 36 37 38 39 40 41 42 43 44 45 46 47 48 49 50
000
ASUS43 KBIS 281520
RWRBIS

NWR BROADCAST TEXT
NATIONAL WEATHER SERVICE BISMARCK ND
1000 AM CDT THU AUG 28 2014

NOTE: "FAIR" INDICATES FEW OR NO CLOUDS BELOW 12,000 FEET WITH NO
SIGNIFICANT WEATHER AND/OR OBSTRUCTIONS TO VISIBILITY.


CITY           SKY/WX    TMP DP  RH WIND       PRES   REMARKS
WILLISTON      SUNNY     67  60  78 S8        29.89F
MINOT          MOSUNNY   70  62  76 S8        29.88F
MINOT AFB      MOSUNNY   69  67  93 S8        29.87F
BISMARCK       CLOUDY    65  64  97 CALM      29.95S FOG
DICKINSON      MOSUNNY   68  63  84 S7        29.93F
GARRISON         N/A     62  62 100 S6        29.92F
HETTINGER ARPT CLOUDY    62  60  93 CALM      29.97F
JAMESTOWN      CLOUDY    67  64  90 S9        29.95F
BEACH            N/A     70  63  78 W5        29.96S
CARRINGTON     FAIR      72  72 100 S9        29.95F
CROSBY         FAIR      72  63  73 SW13      29.87S
HARVEY         FAIR      68  68 100 S8        29.93F
HAZEN          CLOUDY    64  63  94 S6        29.93F
LINTON         CLOUDY    66  66 100 S8        29.95R
MANDAN         FOG       63  63 100 S5        29.96S VSB<1/4
OAKES            N/A     66  66 100 SE6       29.96F
RUGBY          FAIR      66  64  94 S7        29.91F
STANLEY        FAIR      68  68 100 S7        29.91S
TIOGA          FAIR      72  66  83 SW9       29.93S
WATFORD CITY   FAIR      72  59  64 SW7       29.89S
$$

CITY           SKY/WX    TMP DP  RH WIND       PRES   REMARKS
GRAND FORKS    CLOUDY    67  62  84 S13       29.95S
GRAND FORKS AF PTSUNNY   68  67  96 S12       29.96S
DEVILS LAKE    CLOUDY    66  61  82 SW12      29.92F
FARGO          PTSUNNY   68  61  78 S15       29.98S
CANDO          FAIR      66  63  88 S9        29.93F
CAVALIER       FAIR      64  61  88 S10       29.93F
GRAFTON        CLOUDY    66  64  94 S13       29.94F
GWINNER        PTSUNNY   66  66 100 SE8       29.98S
LANGDON        FAIR      68  63  83 SW12      29.94S
ROLLA          FAIR      66  66 100 S13       29.93S
WALHALLA         N/A     68  66  94 S7        29.92F
$$

CITY           SKY/WX    TMP DP  RH WIND       PRES   REMARKS
ABERDEEN       CLOUDY    67  66  97 SE6       29.95S
MOBRIDGE       LGT RAIN  66  66 100 SE8       29.92S
BUFFALO          N/A     66  62  87 W3        29.92F
RAPID CITY     CLOUDY    65  60  84 CALM      30.01R
GLASGOW        SUNNY     68  53  58 SW5       29.89S
SIDNEY         SUNNY     66  64  94 S8        29.91F
WOLF POINT     PTSUNNY   66  55  67 W5        29.89S
GLENDIVE       SUNNY     66  63  88 S8        29.94S
MILES CITY     SUNNY     67  55  65 SW7       29.96S
BAKER          SUNNY     69  58  67 W7        29.98S
$$

CITY           SKY/WX    TMP DP  RH WIND       PRES   REMARKS
BILLINGS       MOSUNNY   67  49  52 SW13      30.05S
GREAT FALLS    SUNNY     69  47  45 SW10      30.02S
REGINA         SUNNY     63  57  82 NE5       29.83S
ESTEVAN        MOSUNNY   70  61  73 SW9       29.86F
$$



USA.gov is the U.S. government's official web portal to all federal, state and local government web resources and services.